星链-37018(STARLINK-37018)

导读

STARLINK-37018(NORAD编号68103)是美国SpaceX公司星链(Starlink)项目的低轨互联网卫星,归属Starlink V1.0平台,运行在近地轨道,近地点高度约570公里,远地点约574公里,轨道倾角70.003°,周期约96分钟,旨在为全球提供高速低延迟卫星互联网服务,覆盖全球范围,兼顾民用通信与特定行业支持。星链项目作为全球规模最大的低轨卫星星座,持续推动互联网普及,该卫星是星座组网的组成单元,目前该卫星基本轨道参数稳定,由SpaceX负责运营维护。

基本信息
目录编号:
68103
目录名称:
STARLINK-37018
国际标识:
2026-044C
轨道中心:
EARTH
卫星名称:
星链-37018
卫星全名:
星链-37018(STARLINK-37018)
卫星状态:
在轨 (已飞行97 天)
发射日期:
2026-03-08 UTC
国别 :
美国 (US)
星等 :
--
轨道信息
数据来源 国际轨道数据
星历时间: 2026-06-13T04:33:53+0800
3小时前
查看轨道信息
半长轴: 6843.635km
偏心率: 0.0001615
轨道倾角: 97.283°
近地点辐角 97.200°
升交点赤经 124.159°
平近点角 262.943°
近地点: 464.392km
远地点: 466.604km
周期: 93.905分钟
每日圈数: 15.334603
详细信息
固有亮度:
5
最大亮度:
2.5
卫星平台:
Starlink V1.0
覆盖范围:
全球
运营商:
太空探索技术公司
运营商所在国:
美国
制造商(研发单位):
太空探索技术公司
制造商所在国:
美国
使用方式:
暂无
卫星简介
Starlink 计划是 SpaceX 推出的全球卫星互联网项目,通过发射低轨道卫星,为全球尤其是偏远地区提供高速、低延迟的互联网服务。自 2019 年起,Starlink 已部署数千颗卫星,旨在缩小全球数字鸿沟,推动互联网普及。该项目还为军事、航空等行业提供通信支持,带来广泛经济效益。
2D轨道图
3D轨道图
轨道高度分析图
轨道倾角分析图
轨道综合分析图
查看轨道综合分析图